Starlink 30409

operational
NORAD ID: 57820 Int'l Des: 2023-138 Owner: SPXS Country: US Constellation: starlink
LEOCIRCULAR

Über Starlink 30409

Beschreibung wird geladen...

Live-Position

3D-Globus wird geladen...

Nächste Überflüge

Höhenverlauf

Altitude vs Time

uPlot chart will show altitude changes over time

Zweizeiliger Elementsatz

1 57820U 23138N 25306.41883163 -.00000573 00000-0 -27371-4 0 9990
2 57820 43.0035 207.3962 0001143 253.5889 106.4827 15.02525191119513
Epoch: 2. Nov. 2025 • Age: 12 hours

Aktueller Status

Höhe 560.6 km
Geschwindigkeit 7.58 km/s
Subsatellitenpunkt -11.24°S, 23.12°E
Startdatum 9. Sept. 2023
Alter 2.1 years
Typ internet

Technische Details

Klassifizierung Payload
Masse 730.00 kg
Trockenmasse 700.00 kg
Gesamtmasse 730.00 kg
Länge 0.30 m
Durchmesser 4.10 m
Spannweite 29.00 m
Form Box + pan
Hersteller SPXS
Bus-Typ Starlink V2M
Phasenstatus In Orbit
Besitzer/Staat SPXS/US

Große Konstellationen

Loading constellations...